Location: Maddington
(51.2000°N, 1.9167°W)
Time: 14:36:51
(UTC+00:00)

NOSS 2-2 (E) - Pass Details

Date: 17 January 2021
Orbit: 462 x 1744 km, 63.3° (Epoch: 03 March)

Event Time Altitude Azimuth Distance (km) Brightness Sun altitude
Rises 18:43:06 0° 302° (WNW) 2,712 7.6 -19.8°
Reaches altitude 10° 18:45:37 10° 321° (NW) 1,950 6.5 -20.2°
Maximum altitude 18:48:51 20° 9° (N) 1,599 5.5 -20.7°
Enters shadow 18:49:22 19° 18° (NNE) 1,641 5.5 -20.7°
